Notices

What's New in latest Release from April 7th, 2021:

- Updated Glossary, including Speed of Maximum Gust, and Total Hourly Precipitation

- Updated national and regional climate services offices contacts and prices information

- Addition of station inventory lists for 1981-2010, 1971-2000, and 1961-1990 Normals.

If you haven't already, please take our survey and provide feedback about our website: https://eccc.sondage-survey.ca/f/LanguageSelection.aspx?s=442ca660-fcf1-47c0-95a9-59707d6fd709

Hourly Data Report for August 18, 2015

IQALUIT CLIMATE
NUNAVUT

63°44'50.000" N
68°32'40.000" W
33.50 m
2402592
71321
XFB

Download Data

Hourly Data (August 2015)
Hourly Data Report for August 18, 2015
TIME
LST
Temp Definition
°C
Dew Point Definition
°C
Rel Hum Definition
%
Precip. Amount Definition
mm

Wind Dir Definition
10's deg

Wind Spd Definition
km/h
Visibility Definition
km
Stn Press Definition
kPa
Hmdx Definition


Wind Chill Definition


Weather Definition


00:00 3.9 1.0 81 0.0 15 8   99.95     LegendNANA
01:00 4.6 1.6 81 0.0 12 7   99.96     LegendNANA
02:00 5.0 1.6 79 0.0 20 6   100.03     LegendNANA
03:00 3.7 1.1 83 0.0 11 5   100.07     LegendNANA
04:00 3.5 1.2 85 0.0 18 4   100.11     LegendNANA
05:00 3.7 1.4 85 0.0 16 7   100.14     LegendNANA
06:00 4.3 1.6 83 0.0 17 4   100.21     LegendNANA
07:00 5.0 2.4 83 0.0 15 6   100.25     LegendNANA
08:00 5.3 1.8 78 0.0 16 9   100.27     LegendNANA
09:00 4.9 2.0 81 0.0 15 8   100.29     LegendNANA
10:00 5.8 2.0 77 0.0 16 9   100.31     LegendNANA
11:00 5.3 2.0 79 0.0 15 8   100.30     LegendNANA
12:00 LegendMM 3.7 63 0.0 24 12   100.28     LegendNANA
13:00 LegendMM 2.4 77 0.0 15 11   100.30     LegendNANA
14:00 9.2 3.9 70 0.0 14 8   100.32     LegendNANA
15:00 10.3 2.7 59 0.0 25 15   100.32     LegendNANA
16:00 10.9 3.1 58 0.0 25 15   100.31     LegendNANA
17:00 10.0 2.9 61 0.0 25 9   100.33     LegendNANA
18:00 6.3 3.8 84 0.0 16 7   100.37     LegendNANA
19:00 5.2 2.7 84 0.0 15 8   100.37     LegendNANA
20:00 4.3 2.0 85 0.0 15 7   100.38     LegendNANA
21:00 5.9 1.9 75 0.0 13 4   100.40     LegendNANA
22:00 3.4 0.5 81 0.0 23 3   100.40     LegendNANA
23:00 5.2 2.0 80 0.0 34 3   100.42     LegendNANA

Notes on Data Quality.

Legend

  • E = Estimated
  • M = Missing
  • NA = Not Available*
  • [empty] = Indicates an unobserved value
Date modified: